Terug naar catalogus

THORAD AGENA D DEB

ActiefSSO
NORAD 4992·DEBRIS·🇺🇸 United States

Gelanceerd Apr 8, 1970 vanaf Vandenberg Space Force Base

Loading…

Volgende Passages

TLE

Source: Space-Track
1 04992U 70025HN  26218.59851538  .00000076  00000-0  16229-3 0  9997
2 04992 100.1049  71.7494 0014510 229.1325 151.4743 13.61161111790056

Volg THORAD AGENA D DEB in realtime met AllMySat

Download on the App Store